When you browse on this site, cookies collect data to enhance your experience and personalize the content and advertising you see.
Visit our Privacy Policy to learn more. By continuing to use the site, you agree to this use of cookies and data.
  • en Suisse
  • Liste des pays
  • À 7 jours
  • Température de l'eau
  • Carte satellitaire
  • Carte météo
  • Widgets météo
  • user-avatar
    Se connecter

    Météo par heure à Graz

    Ce jour, 23 Mars, Samedi

    Heure Température Précipitation Vent Pression Humidité
    00:00 +8°C° 0 mm 1 m/s 732 mmHg 65%
    01:00 +7°C° 0 mm 1 m/s 732 mmHg 69%
    02:00 +7°C° 0 mm 1 m/s 732 mmHg 70%
    03:00 +7°C° 0 mm 1 m/s 732 mmHg 71%
    04:00 +7°C° 0 mm 1 m/s 732 mmHg 73%
    05:00 +7°C° 0 mm 1 m/s 732 mmHg 72%
    06:00 +7°C° 0 mm 1 m/s 732 mmHg 72%
    07:00 +8°C° 0 mm 1 m/s 732 mmHg 71%
    08:00 +11°C° 0 mm 1 m/s 732 mmHg 63%
    09:00 +14°C° 0 mm 1 m/s 732 mmHg 56%
    10:00 +16°C° 0 mm 0 m/s 732 mmHg 48%
    11:00 +18°C° 0 mm 1 m/s 732 mmHg 45%
    12:00 +19°C° 0 mm 1 m/s 732 mmHg 43%
    13:00 +20°C° 0 mm 1 m/s 731 mmHg 40%
    14:00 +20°C° 0 mm 1 m/s 731 mmHg 41%
    15:00 +20°C° 0 mm 1 m/s 731 mmHg 42%
    16:00 +19°C° 0 mm 1 m/s 730 mmHg 44%
    17:00 +16°C° 0 mm 1 m/s 730 mmHg 53%
    18:00 +14°C° 0 mm 1 m/s 730 mmHg 61%
    19:00 +10°C° 0 mm 0 m/s 730 mmHg 70%
    20:00 +10°C° 0 mm 0 m/s 730 mmHg 72%
    21:00 +11°C° 0 mm 1 m/s 730 mmHg 73%
    22:00 +10°C° 0 mm 1 m/s 731 mmHg 75%
    23:00 +10°C° 0 mm 1 m/s 731 mmHg 76%

    Demain, 24 Mars, Dimanche

    Heure Température Précipitation Vent Pression Humidité
    00:00 +10°C° 0 mm 1 m/s 731 mmHg 78%
    01:00 +9°C° 0 mm 1 m/s 731 mmHg 79%
    02:00 +9°C° 0 mm 1 m/s 730 mmHg 79%
    03:00 +9°C° 0 mm 1 m/s 730 mmHg 80%
    04:00 +8°C° 0 mm 1 m/s 730 mmHg 80%
    05:00 +9°C° 0 mm 1 m/s 730 mmHg 79%
    06:00 +9°C° 0 mm 1 m/s 730 mmHg 78%
    07:00 +9°C° 0 mm 1 m/s 729 mmHg 76%
    08:00 +12°C° 0 mm 1 m/s 729 mmHg 67%
    09:00 +15°C° 0 mm 1 m/s 729 mmHg 58%
    10:00 +19°C° 0 mm 1 m/s 729 mmHg 49%
    11:00 +20°C° 0 mm 1 m/s 729 mmHg 45%
    12:00 +20°C° 0 mm 1 m/s 728 mmHg 42%
    13:00 +20°C° 0 mm 2 m/s 728 mmHg 39%
    14:00 +20°C° 0 mm 2 m/s 727 mmHg 39%
    15:00 +20°C° 0 mm 2 m/s 727 mmHg 40%
    16:00 +20°C° 0 mm 2 m/s 726 mmHg 40%
    17:00 +18°C° 0 mm 1 m/s 726 mmHg 49%
    18:00 +15°C° 0 mm 1 m/s 726 mmHg 58%
    19:00 +12°C° 0 mm 0 m/s 726 mmHg 66%
    20:00 +12°C° 0 mm 1 m/s 726 mmHg 69%
    21:00 +12°C° 0 mm 1 m/s 726 mmHg 72%
    22:00 +11°C° 0 mm 1 m/s 726 mmHg 75%
    23:00 +11°C° 0 mm 1 m/s 726 mmHg 77%

    Après-demain, 25 Mars, Lundi

    Heure Température Précipitation Vent Pression Humidité
    00:00 +11°C° 0 mm 1 m/s 725 mmHg 79%
    01:00 +10°C° 0 mm 1 m/s 725 mmHg 81%
    02:00 +10°C° 0 mm 1 m/s 725 mmHg 82%
    03:00 +10°C° 0 mm 1 m/s 725 mmHg 84%
    04:00 +9°C° 0 mm 1 m/s 724 mmHg 85%
    05:00 +10°C° 0 mm 1 m/s 724 mmHg 84%
    06:00 +10°C° 0 mm 1 m/s 724 mmHg 83%
    07:00 +10°C° 0 mm 1 m/s 724 mmHg 82%
    08:00 +12°C° 0.1 mm 1 m/s 724 mmHg 76%
    09:00 +13°C° 0.1 mm 1 m/s 725 mmHg 70%
    10:00 +15°C° 0.1 mm 1 m/s 725 mmHg 63%
    11:00 +15°C° 0.6 mm 1 m/s 724 mmHg 64%
    12:00 +15°C° 0.6 mm 1 m/s 724 mmHg 65%
    13:00 +15°C° 0.6 mm 1 m/s 724 mmHg 65%
    14:00 +14°C° 1.1 mm 2 m/s 723 mmHg 66%
    15:00 +13°C° 1.1 mm 2 m/s 723 mmHg 67%
    16:00 +13°C° 1.1 mm 2 m/s 723 mmHg 68%
    17:00 +10°C° 0.5 mm 2 m/s 723 mmHg 69%
    18:00 +9°C° 0.5 mm 2 m/s 723 mmHg 70%
    19:00 +7°C° 0.5 mm 3 m/s 724 mmHg 71%
    20:00 +6°C° 0.1 mm 2 m/s 725 mmHg 69%
    21:00 +6°C° 0.1 mm 2 m/s 726 mmHg 67%
    22:00 +6°C° 0.1 mm 1 m/s 727 mmHg 66%
    23:00 +6°C° 0 mm 1 m/s 727 mmHg 66%

    26 Mars, Mardi

    Heure Température Précipitation Vent Pression Humidité
    00:00 +5°C° 0 mm 1 m/s 728 mmHg 67%
    01:00 +5°C° 0 mm 1 m/s 728 mmHg 67%
    02:00 +5°C° 0.1 mm 1 m/s 728 mmHg 69%
    03:00 +4°C° 0.1 mm 1 m/s 728 mmHg 70%
    04:00 +3°C° 0.1 mm 2 m/s 728 mmHg 71%
    05:00 +3°C° 0 mm 2 m/s 729 mmHg 70%
    06:00 +2°C° 0 mm 3 m/s 730 mmHg 68%
    07:00 +2°C° 0 mm 3 m/s 730 mmHg 67%
    08:00 +3°C° 0 mm 4 m/s 731 mmHg 59%
    09:00 +4°C° 0 mm 4 m/s 731 mmHg 50%
    10:00 +5°C° 0 mm 4 m/s 732 mmHg 41%
    11:00 +6°C° 0 mm 4 m/s 732 mmHg 40%
    12:00 +7°C° 0 mm 5 m/s 731 mmHg 39%
    13:00 +7°C° 0 mm 5 m/s 731 mmHg 38%
    14:00 +7°C° 0 mm 5 m/s 731 mmHg 39%
    15:00 +7°C° 0 mm 4 m/s 731 mmHg 40%
    16:00 +7°C° 0 mm 4 m/s 731 mmHg 41%
    17:00 +5°C° 0 mm 3 m/s 731 mmHg 49%
    18:00 +5°C° 0 mm 2 m/s 732 mmHg 56%
    19:00 +3°C° 0 mm 2 m/s 732 mmHg 64%
    20:00 +2°C° 0 mm 2 m/s 732 mmHg 68%
    21:00 +3°C° 0 mm 1 m/s 733 mmHg 72%
    22:00 +2°C° 0 mm 1 m/s 733 mmHg 76%
    23:00 +2°C° 0 mm 1 m/s 733 mmHg 77%

    27 Mars, Mercredi

    Heure Température Précipitation Vent Pression Humidité
    00:00 +2°C° 0 mm 1 m/s 733 mmHg 78%
    01:00 +2°C° 0 mm 1 m/s 733 mmHg 79%
    02:00 +2°C° 0 mm 1 m/s 733 mmHg 79%
    03:00 +2°C° 0 mm 1 m/s 732 mmHg 80%
    04:00 +2°C° 0 mm 1 m/s 732 mmHg 80%
    05:00 +2°C° 0 mm 1 m/s 732 mmHg 76%
    06:00 +3°C° 0 mm 1 m/s 732 mmHg 73%
    07:00 +4°C° 0 mm 1 m/s 733 mmHg 70%
    08:00 +6°C° 0 mm 1 m/s 733 mmHg 61%
    09:00 +8°C° 0 mm 1 m/s 733 mmHg 53%
    10:00 +10°C° 0 mm 1 m/s 733 mmHg 44%
    11:00 +9°C° 0 mm 2 m/s 733 mmHg 44%
    12:00 +9°C° 0 mm 2 m/s 732 mmHg 43%
    13:00 +10°C° 0 mm 2 m/s 732 mmHg 43%
    14:00 +10°C° 0 mm 2 m/s 732 mmHg 44%
    15:00 +9°C° 0 mm 2 m/s 732 mmHg 45%
    16:00 +9°C° 0 mm 2 m/s 731 mmHg 46%
    17:00 +8°C° 0 mm 2 m/s 732 mmHg 52%
    18:00 +7°C° 0 mm 1 m/s 732 mmHg 59%
    19:00 +5°C° 0 mm 0 m/s 732 mmHg 65%
    20:00 +5°C° 0.1 mm 0 m/s 732 mmHg 68%
    21:00 +4°C° 0.1 mm 0 m/s 733 mmHg 71%
    22:00 +4°C° 0.1 mm 0 m/s 733 mmHg 74%
    23:00 +4°C° 0.1 mm 0 m/s 733 mmHg 76%

    28 Mars, Jeudi

    Heure Température Précipitation Vent Pression Humidité
    00:00 +4°C° 0.1 mm 0 m/s 733 mmHg 78%
    01:00 +4°C° 0.1 mm 0 m/s 733 mmHg 81%
    02:00 +3°C° 0.1 mm 0 m/s 733 mmHg 82%
    03:00 +3°C° 0.1 mm 0 m/s 733 mmHg 83%
    04:00 +3°C° 0.1 mm 0 m/s 733 mmHg 85%
    05:00 +4°C° 0.2 mm 0 m/s 733 mmHg 84%
    06:00 +4°C° 0.2 mm 0 m/s 734 mmHg 84%
    07:00 +4°C° 0.2 mm 0 m/s 734 mmHg 83%
    08:00 +6°C° 0.1 mm 0 m/s 734 mmHg 76%
    09:00 +8°C° 0.1 mm 1 m/s 734 mmHg 70%
    10:00 +9°C° 0.1 mm 1 m/s 735 mmHg 63%
    11:00 +10°C° 0.1 mm 1 m/s 734 mmHg 61%
    12:00 +11°C° 0.1 mm 1 m/s 734 mmHg 58%
    13:00 +10°C° 0.1 mm 2 m/s 734 mmHg 55%
    14:00 +10°C° 0.1 mm 2 m/s 734 mmHg 55%
    15:00 +10°C° 0.1 mm 2 m/s 734 mmHg 56%
    16:00 +10°C° 0.1 mm 2 m/s 733 mmHg 56%
    17:00 +9°C° 0 mm 1 m/s 734 mmHg 62%
    18:00 +8°C° 0 mm 1 m/s 734 mmHg 69%
    19:00 +6°C° 0 mm 0 m/s 734 mmHg 75%
    20:00 +5°C° 0 mm 0 m/s 735 mmHg 76%
    21:00 +5°C° 0 mm 0 m/s 735 mmHg 77%
    22:00 +5°C° 0 mm 0 m/s 735 mmHg 78%
    23:00 +5°C° 0 mm 1 m/s 735 mmHg 79%
    Voir plus